Home   Weather   Glendale   Past weeks

Flag for USA Past Weather in Glendale, Arizona, USA — Yesterday and Last 2 Weeks

Now
94 °F

Sunny.


Feels Like: 93 °F
Forecast: 84 / 105 °F
Wind: 5 mph from North

Location: Phoenix-Deer Valley Municipal Airport

Current Time: Jul 27, 2017 at 9:59:32 am

Latest Report: Jul 27, 2017 at 8:53 am


Visibility: 10 mi

Pressure: 29.82 "Hg

Humidity: 31%

Dew Point: 59 °F

Location of GlendaleLocation

Past Weather in Glendale — Graph

°F

Glendale Temperature Yesterday

Maximum temperature yesterday: 104 °F (at 3:53 pm)
Minimum temperature yesterday: 82 °F (at 3:53 am)
Average temperature yesterday: 94 °F

High & Low Weather Summary for the Past Weeks

 TemperatureHumidityPressure
High108 °F (Jul 13, 4:53 pm)91% (Jul 16, 10:53 pm)29.97 "Hg (Jul 16, 10:53 pm)
Low74 °F (Jul 16, 10:53 pm)16% (Jul 13, 4:53 pm)29.66 "Hg (Jul 16, 5:53 pm)
Average91 °F46%29.81 "Hg
* Reported Jul 12 7:53 am — Jul 27 7:53 am, Glendale. Weather by CustomWeather, © 2017

Note: Actual official high and low records may vary slightly from our data, if they occured in-between our weather recording intervals... More about our weather records

Advertising

Glendale Weather History for the Previous 24 Hours

Scroll right to see more
 ConditionsComfort  
Time TempWeatherWind HumidityBarometerVisibility
7:53 am
Thu, Jul 27
91 °FSunny.No wind36%29.83 "Hg10 mi
6:53 am86 °FSunny.No wind43%29.82 "Hg10 mi
5:53 am84 °FSunny.No wind45%29.82 "Hg10 mi
4:53 am85 °FClear.No wind45%29.80 "Hg10 mi
3:53 am85 °FClear.No wind50%29.79 "Hg10 mi
2:53 am87 °FClear.3 mph45%29.78 "Hg10 mi
1:53 am88 °FClear.No wind42%29.78 "Hg10 mi
12:53 am89 °FClear.No wind39%29.78 "Hg10 mi
11:53 pm
Wed, Jul 26
92 °FClear.7 mph35%29.80 "Hg10 mi
10:53 pm93 °FClear.No wind33%29.79 "Hg10 mi
9:53 pm96 °FClear.7 mph29%29.79 "Hg10 mi
8:53 pm97 °FClear.8 mph29%29.78 "Hg10 mi
7:53 pm98 °FClear.9 mph27%29.77 "Hg10 mi
6:53 pm100 °FSunny.12 mph25%29.76 "Hg10 mi
5:53 pm102 °FSunny.13 mph23%29.76 "Hg10 mi
4:53 pm104 °FSunny.16 mph20%29.77 "Hg10 mi
3:53 pm104 °FSunny.10 mph20%29.79 "Hg10 mi
2:53 pm102 °FSunny.8 mph21%29.81 "Hg10 mi
1:53 pm101 °FPassing clouds.5 mph22%29.84 "Hg10 mi
12:53 pm101 °FSunny.7 mph22%29.86 "Hg10 mi
11:53 am99 °FSunny.5 mph26%29.88 "Hg10 mi
10:53 am99 °FSunny.6 mph28%29.90 "Hg10 mi
9:53 am94 °FSunny.6 mph38%29.92 "Hg10 mi
Weather by CustomWeather, © 2017

See weather overviewHow to use our weather pages